Accueil
METAR-TAF:

METAR-TAF

Aéroports :

Andora, Italie

Capo Mele

latitude: 43-57N, longitude: 008-10E, altitude: 220 m

Observation

Le bulletin a été fait il y a 33 minutes, à 16:55 UTC
Vent 14 kt de nord/nord-est
Température 26°C
Humidité 89%
Pression 1012 hPa
Visibilité 10 km ou plus
Nuages épars à une hauteur de 1000 ft

METAR: LIMU 251655Z 02014KT 9999 SCT010 26/24 Q1012 RMK SCT QUK 3 QUL 1 S VIS MAR 10 KM VIS MIN 9999

Heure: 19:28 (17:28 UTC)


TAF: absent

Observations et prévisions météorologiques de plus de 4000 aéroports (messages METAR et TAF).

Les stations disponibles sont représentées par des disques jaunes et rouges sur la carte.

Passer la souris dessus pour voir le nom de la station.

Cliquer dessus pour voir les observations et prévisions météorologiques.

Pour changer de carte: cliquez sur les boutons verts avec une croix noire pour zoomer, sur le bouton vert avec un tiret pour effectuer un zoom arrière, ou sur les flèches vertes pour les cartes adjacentes.


METAR-TAF: